Content
SEND FEEDBACK

Daily
Averages
Monthly
Summary
United States of America

EARTH CITY, MISSOURI


Home > North America > United States > Missouri
Elevation: 476 feet     Latitude: 38 46N     Longitude: 090 30W

WEATHER
 
SELECT A DAY
Number of Records: 203,643;   Date Range: 1/1/95 - 9/16/14
 
SHARE

PRINT THIS DATA

[ ← Previous Day ]
WEATHER ALMANAC - JANUARY 9, 2013
[ Next Day → ]
[ °C ]   °F
Weather ElementAverageHighLow
Temperature48.8 °F57.9 °F (1:51 pm)39.9 °F (9:51 pm)
Dewpoint34.4 °F42.1 °F (2:51 am)28.9 °F (4:51 pm)
Humidity59.3 %82 % (5:51 am)39 % (1:51 pm)
Barometer30.39 in30.49 in (9:51 pm)30.22 in (1:51 am)
Wind Speed6.9 mph12.7 mph (3:51 am)
Weather ElementAverage
Visibility10 mi
Wind DirectionSW (226.1 °)

Weather ElementTotal
Precipitation---
Heating Degree Days16.1 (Base 65)
Averaged from 23 records on January 9, 2013
WEATHER CONDITIONS BREAKOUT
WIND DIRECTION BREAKOUT
WEATHER BY HOUR - JANUARY 9, 2013
[ °C ]   °F
Local TimeTemperatureDewpointHumidityBarometerVisibilityWind DirectionWind SpeedGust SpeedPrecipitationEventsConditions
1:51 AM48.9 °F37.9 °F66 %30.22 in10.0 miSW (220°)8.1 mph0.00 inOvercast
2:51 AM50.0 °F42.1 °F74 %30.24 in10.0 miWSW (240°)11.5 mph0.00 inRainLight Rain
3:51 AM51.1 °F42.1 °F71 %30.25 in10.0 miWest (260°)12.7 mph0.00 inOvercast
4:51 AM48.0 °F41.0 °F77 %30.28 in10.0 miWest (280°)6.9 mphMostly Cloudy
5:51 AM45.0 °F39.9 °F82 %30.30 in10.0 miWest (280°)5.8 mphScattered Clouds
6:51 AM43.0 °F37.9 °F82 %30.34 in10.0 miWNW (300°)4.6 mphMostly Cloudy
7:51 AM41.0 °F36.0 °F82 %30.37 in10.0 miWest (280°)4.6 mphMostly Cloudy
8:51 AM48.0 °F37.9 °F68 %30.38 in10.0 miWNW (290°)6.9 mphMostly Cloudy
9:51 AM51.1 °F36.0 °F56 %30.41 in10.0 miWest (280°)5.8 mphMostly Cloudy
10:51 AM54.0 °F34.0 °F47 %30.42 in10.0 miNNW (330°)4.6 mphMostly Cloudy
11:51 AM55.4 °F33.8 °F44 %30.40 in10.0 miNNW (340°)9.2 mphMostly Cloudy
12:51 PM55.9 °F34.0 °F44 %30.40 in10.0 miNW (320°)5.8 mphMostly Cloudy
1:51 PM57.9 °F33.1 °F39 %30.40 in10.0 miNW (310°)5.8 mphMostly Cloudy
2:51 PM55.9 °F30.9 °F39 %30.41 in10.0 miNNW (330°)12.7 mphMostly Cloudy
3:51 PM54.0 °F30.0 °F40 %30.43 in10.0 miNNW (330°)6.9 mphMostly Cloudy
4:51 PM50.0 °F28.9 °F44 %30.43 in10.0 miNorth (350°)3.5 mphOvercast
5:51 PM46.9 °F30.0 °F52 %30.46 in10.0 miCalmOvercast
6:51 PM48.0 °F30.9 °F52 %30.48 in10.0 miNE (40°)5.8 mphOvercast
7:51 PM48.0 °F30.9 °F52 %30.48 in10.0 miNE (40°)9.2 mphOvercast
8:51 PM45.0 °F30.0 °F56 %30.48 in10.0 miENE (60°)6.9 mphOvercast
9:51 PM39.9 °F30.0 °F68 %30.49 in10.0 miEast (100°)5.8 mphOvercast
10:51 PM44.1 °F32.0 °F63 %30.48 in10.0 miEast (90°)8.1 mphOvercast
11:51 PM42.1 °F30.9 °F65 %30.47 in10.0 miSE (130°)6.9 mphOvercast
Hourly data recorded from KSTL, located miles away from Earth City, Missouri







STORIES FROM OUR PARTNERS